OBJECT B (52798 NORAD) Tracking and Keplerian Element Data

This shows tracking and keplerian element data for the satellite.

Feedback or suggestion? Click here.




ElementValue
Catalog52798
NameOBJECT B
Epoch Orbit166
Epoch Day166.40665551
Epoch Year2022
RAAN225.1691
Inclination41.4669
Eccentricity0.0067435
Argument of Perigee204.6369
Mean Anonmoly155.1357
Mean Motion16.17257092
Decay Rate0.01029819
L11 52798U 22060B 22166.40665551 .01029819 76673-5 39365-3 0 9993
L22 52798 41.4669 225.1691 0067435 204.6369 155.1357 16.17257092 1664

Live tracking and technical data element details for OBJECT B (NORAD 52798). OBJECT B can be tracked NOW for your location showing map with azimuth and elevation plus other details from your city location.

Track the satellite on the map from your city or location and see movement details for azimuth, elevation, latitude, longitude, range, height, and movement on the map or in text.







IsCatalogInMostPopularTable: catalog: 52798, numindb: 3
Update: records affected: 1



GetName: 52798 OBJECT B

Hit Count: updated at: Thu, 18 Aug 2022 19:09:00 GMT